Location: Sungai Jaoh
(2.9167°N, 113.9167°E)
Time: 06:42:03
(UTC+00:00)

Envisat - Pass Details

Date: 30 September 2021
Orbit: 764 x 766 km, 98.2° (Epoch: 24 October)

Event Time Altitude Azimuth Distance (km) Brightness Sun altitude
Rises 21:04:15 0° 14° (NNE) 3,213 6.4 -17.6°
Reaches altitude 10° 21:06:33 10° 16° (NNE) 2,290 5.6 -17.0°
Maximum altitude 21:11:36 78° 102° (ESE) 783 3.1 -15.8°
Drops below altitude 10° 21:16:39 10° 188° (S) 2,297 5.4 -14.5°
Sets 21:18:58 0° 189° (S) 3,225 6.2 -13.9°
